Regional Weather Roundup
Issued by NWS

Home | Current Version | Previous Version | Text Only | Print | Product List | Glossary Off
Versions: 1 2 3 4 5 6 7 8 9 10 11 12 13 14 15 16 17 18 19 20 21 22 23 24 25 26 27 28 29 30 31 32 33 34 35 36 37 38 39 40 41 42 43 44 45 46 47 48 49 50

000
ASUS43 KFSD 011810
RWRSD

WEATHER ROUNDUP FOR SOUTH DAKOTA
NATIONAL WEATHER SERVICE SIOUX FALLS SD
100 PM CDT MON SEP 01 2014

NOTE: "FAIR" INDICATES FEW OR NO CLOUDS BELOW 12,000 FEET WITH NO
SIGNIFICANT WEATHER AND/OR OBSTRUCTIONS TO VISIBILITY.


SDZ001>005-009-010-012>017-011900-
NORTHWEST AND NORTH CENTRAL SOUTH DAKOTA

CITY           SKY/WX    TMP DP  RH WIND       PRES   REMARKS
BUFFALO          N/A     69  45  41 NW12      29.86R
FAITH            N/A     72  52  49 NW13      29.88S
MOBRIDGE       SUNNY     72  55  55 NW7       29.81R
$$

SDZ012>016-024>037-041>051-057-063-072>074-011900-
SOUTHWEST AND SOUTH CENTRAL SOUTH DAKOTA

CITY           SKY/WX    TMP DP  RH WIND       PRES   REMARKS
RAPID CTY ARPT PTSUNNY   72  47  40 N10       29.94S
PIERRE         MOSUNNY   73  56  54 SW8       29.84S
CUSTER         CLOUDY    63  37  38 VRB6      30.02F
ELLSWORTH AFB  PTSUNNY   70  45  41 NW13      29.93F
PHILIP         SUNNY     75  49  39 W10G21    29.88F
PINE RIDGE     SUNNY     72  51  47 SW13      29.94F
WINNER         FAIR      75  52  44 W6        29.90S
$$

SDZ004>011-016>023-039-040-011900-
NORTHEAST SOUTH DAKOTA

CITY           SKY/WX    TMP DP  RH WIND       PRES   REMARKS
ABERDEEN       SUNNY     73  56  54 W7        29.80R
WATERTOWN      MOSUNNY   72  58  61 W12       29.82R
SISSETON         N/A     74  55  51 NW6       29.77S
$$

SDZ017-020-022-023-036>040-048>070-011900-
SOUTHEAST SOUTH DAKOTA

CITY           SKY/WX    TMP DP  RH WIND       PRES   REMARKS
SIOUX FALLS    PTSUNNY   74  61  63 NW15      29.84F
HURON          SUNNY     74  54  49 W8        29.84S
CHAMBERLAIN    MOSUNNY   73  56  55 SW7       29.88S
MITCHELL       SUNNY     73  58  59 NW10      29.86S
YANKTON        MOSUNNY   73  61  64 NW9       29.86R
$$

ABBREVIATIONS USED IN REMARKS
   TC - TEMPERATURE IN CELSIUS
  WCI - WIND CHILL INDEX
   HX - HEAT INDEX
  VSB - VISIBILITY




USA.gov is the U.S. government's official web portal to all federal, state and local government web resources and services.